Weather History for PAIM - March, 2014

Change the Weather History Date:

Saturday, March 1, 2014

  Actual Average Record
Temperature  
Mean Temperature 14 °F -  
Max Temperature 22 °F 12 °F 22 °F (2014)
Min Temperature 7 °F 1 °F -35 °F (2006)
Degree Days  
Heating Degree Days 51    
Moisture  
Dew Point 5 °F    
Average Humidity 69    
Maximum Humidity 85    
Minimum Humidity 49    
Precipitation  
Precipitation 0.00 in - - ()
Sea Level Pressure  
Sea Level Pressure 30.20 in    
Wind  
Wind Speed 3 mph (NW)    
Max Wind Speed 7 mph    
Max Gust Speed -    
Visibility 10 miles    
Events      
Averages and records for this station are not official NWS values.
T = Trace of Precipitation, MM = Missing Value Source: NWS Daily Summary

Daily Weather History Graph

Daily Weather History Graph

Search for Another Location

Airport or City:

Trip Planner

Search our weather history database for the weather conditions in past years. The results will help you decide how hot, cold, wet, or windy it might be!

Date:

Astronomy

Mar. 01, 2014 Rise Set
Actual Time 8:26 AM AKST 6:29 PM AKST
Civil Twilight 7:34 AM AKST 7:20 PM AKST
Nautical Twilight 6:35 AM AKST 8:20 PM AKST
Astronomical Twilight 5:34 AM AKST 9:22 PM AKST
Moon 8:01 AM AKST (3/1) 8:07 PM AKST (3/1)
Length of Visible Light 11h 46m
Length of Day
10h 02m
New Moon, 0% of the Moon is Illuminated
Mar 1
New Moon
Mar 8
First Quarter
Mar 16
Full
Mar 23
Last Quarter
Mar 30
New

Hourly Weather History & Observations

Time (AKST) Temp. Windchill Dew Point Humidity Pressure Visibility Wind Dir Wind Speed Gust Speed Precip Events Conditions
12:03 AM 14.0 °F 8.2 °F 5.0 °F 67% 30.21 in 10.0 mi NNW 3.5 mph - N/A   Partly Cloudy
12:55 AM 12.4 °F 4.6 °F 5.2 °F 73% 30.21 in 10.0 mi NNW 4.6 mph - N/A   Clear
1:03 AM 14.0 °F 8.2 °F 5.0 °F 67% 30.21 in 10.0 mi WNW 3.5 mph - N/A   Partly Cloudy
1:55 AM 12.2 °F - 4.8 °F 72% 30.20 in 10.0 mi Variable 1.2 mph - N/A   Clear
2:55 AM 12.0 °F - 3.9 °F 70% 30.22 in 10.0 mi Variable 1.2 mph - N/A   Clear
3:55 AM 11.8 °F - 5.2 °F 75% 30.20 in 10.0 mi NNW 1.2 mph - N/A   Clear
4:03 AM 10.4 °F - 3.2 °F 73% 30.20 in 10.0 mi Variable 1.2 mph - N/A   Scattered Clouds
4:55 AM 11.7 °F - 5.0 °F 75% 30.19 in 10.0 mi Variable 1.2 mph - N/A   Partly Cloudy
5:55 AM 9.1 °F - 4.6 °F 82% 30.19 in 10.0 mi SW 1.2 mph - N/A   Mostly Cloudy
6:55 AM 9.9 °F - 3.7 °F 76% 30.20 in 10.0 mi NW 1.2 mph - N/A   Scattered Clouds
7:55 AM 8.2 °F - 3.7 °F 82% 30.21 in 10.0 mi NW 2.3 mph - N/A   Partly Cloudy
8:55 AM 7.0 °F - 2.8 °F 83% 30.22 in 10.0 mi NNW 2.3 mph - N/A   Mostly Cloudy
9:55 AM 9.5 °F - 3.9 °F 78% 30.23 in 10.0 mi Variable 1.2 mph - N/A   Mostly Cloudy
10:55 AM 10.9 °F - 4.5 °F 75% 30.23 in 10.0 mi SE 1.2 mph - N/A   Clear
11:55 AM 11.5 °F - 4.3 °F 73% 30.22 in 10.0 mi South 2.3 mph - N/A   Partly Cloudy
12:55 PM 17.6 °F - 4.6 °F 57% 30.21 in 10.0 mi SSE 2.3 mph - N/A   Clear
1:55 PM 20.1 °F 11.3 °F 4.6 °F 51% 30.20 in 10.0 mi SE 6.9 mph - N/A   Clear
2:55 PM 21.0 °F 14.6 °F 4.6 °F 49% 30.19 in 10.0 mi SE 4.6 mph - N/A   Clear
3:55 PM 21.4 °F 16.6 °F 5.0 °F 49% 30.18 in 10.0 mi SE 3.5 mph - N/A   Clear
4:55 PM 21.2 °F 16.4 °F 5.0 °F 50% 30.16 in 10.0 mi SSE 3.5 mph - N/A   Clear
5:55 PM 18.5 °F 13.3 °F 4.6 °F 55% 30.17 in 10.0 mi SSE 3.5 mph - N/A   Clear
6:55 PM 15.6 °F - 4.3 °F 61% 30.17 in 10.0 mi NW 1.2 mph - N/A   Mostly Cloudy
7:55 PM 14.2 °F - 4.5 °F 65% 30.19 in 10.0 mi Variable 1.2 mph - N/A   Mostly Cloudy
8:55 PM 12.7 °F - 4.3 °F 69% 30.18 in 10.0 mi NNW 2.3 mph - N/A   Mostly Cloudy
9:55 PM 14.2 °F 8.4 °F 6.3 °F 71% 30.18 in 10.0 mi NW 3.5 mph - N/A   Mostly Cloudy
10:55 PM 11.3 °F 3.3 °F 6.1 °F 80% 30.17 in 10.0 mi NW 4.6 mph - N/A   Clear
11:55 PM 9.5 °F - 5.9 °F 85% 30.17 in 10.0 mi ENE 1.2 mph - N/A   Scattered Clouds